TimeCDT,TemperatureF,Dew PointF,Humidity,Sea Level PressureIn,VisibilityMPH,Wind Direction,Wind SpeedMPH,Gust SpeedMPH,PrecipitationIn,Events,Conditions,WindDirDegrees,DateUTC
12:53 AM,79.0,59.0,50,29.75,10.0,SSE,25.3,35.7,N/A,,Clear,150,2013-06-24 05:53:00
1:53 AM,79.0,57.9,48,29.74,10.0,SSE,23.0,31.1,N/A,,Clear,160,2013-06-24 06:53:00
2:53 AM,78.1,57.9,50,29.75,10.0,SSE,20.7,31.1,N/A,,Clear,160,2013-06-24 07:53:00
3:53 AM,75.9,57.9,54,29.75,10.0,SSE,17.3,26.5,N/A,,Clear,160,2013-06-24 08:53:00
4:53 AM,75.0,60.1,60,29.75,10.0,SSE,17.3,25.3,N/A,,Clear,160,2013-06-24 09:53:00
5:53 AM,73.9,62.1,66,29.77,10.0,SSE,16.1,24.2,N/A,,Clear,160,2013-06-24 10:53:00
6:53 AM,73.9,63.0,68,29.79,10.0,South,18.4,25.3,N/A,,Clear,170,2013-06-24 11:53:00
7:53 AM,73.9,63.0,68,29.82,10.0,SSE,16.1,21.9,N/A,,Clear,160,2013-06-24 12:53:00
8:53 AM,75.0,63.0,66,29.83,10.0,SSE,10.4,-,N/A,,Clear,150,2013-06-24 13:53:00
9:53 AM,80.1,63.0,56,29.83,10.0,SSE,15.0,20.7,N/A,,Clear,150,2013-06-24 14:53:00
10:53 AM,84.0,62.1,47,29.83,10.0,SE,13.8,-,N/A,,Clear,140,2013-06-24 15:53:00
11:53 AM,87.1,62.1,43,29.82,10.0,SE,16.1,21.9,N/A,,Clear,130,2013-06-24 16:53:00
12:53 PM,91.9,61.0,35,29.80,10.0,SE,19.6,26.5,N/A,,Clear,130,2013-06-24 17:53:00
1:53 PM,93.9,60.1,32,29.78,10.0,SE,19.6,27.6,N/A,,Clear,130,2013-06-24 18:53:00
2:53 PM,97.0,59.0,28,29.75,10.0,SE,18.4,25.3,N/A,,Clear,140,2013-06-24 19:53:00
3:53 PM,93.0,60.1,33,29.74,10.0,SSE,19.6,24.2,N/A,,Clear,150,2013-06-24 20:53:00
4:53 PM,90.0,60.1,37,29.74,10.0,SSE,20.7,26.5,N/A,,Clear,150,2013-06-24 21:53:00
5:53 PM,88.0,61.0,40,29.75,10.0,SSE,20.7,28.8,N/A,,Clear,150,2013-06-24 22:53:00
6:53 PM,86.0,61.0,43,29.73,10.0,SE,18.4,28.8,N/A,,Clear,140,2013-06-24 23:53:00
7:53 PM,84.9,61.0,44,29.75,10.0,SE,19.6,26.5,N/A,,Clear,140,2013-06-25 00:53:00
8:53 PM,84.9,60.1,43,29.74,10.0,SE,21.9,29.9,N/A,,Clear,140,2013-06-25 01:53:00
9:53 PM,82.9,60.1,46,29.77,10.0,SSE,20.7,29.9,N/A,,Clear,160,2013-06-25 02:53:00
10:53 PM,81.0,61.0,50,29.77,10.0,SSE,18.4,26.5,N/A,,Clear,150,2013-06-25 03:53:00
11:53 PM,80.1,62.1,54,29.79,10.0,SSE,16.1,26.5,N/A,,Clear,160,2013-06-25 04:53:00